TimeAKDT,TemperatureF,Dew PointF,Humidity,Sea Level PressureIn,VisibilityMPH,Wind Direction,Wind SpeedMPH,Gust SpeedMPH,PrecipitationIn,Events,Conditions,WindDirDegrees,DateUTC
12:54 AM,24.1,12.9,62,29.49,10.0,WNW,11.5,-,N/A,,Scattered Clouds,300,2012-10-16 08:54:00
1:54 AM,21.9,12.9,68,29.50,10.0,NW,9.2,-,N/A,,Partly Cloudy,310,2012-10-16 09:54:00
2:54 AM,21.0,12.9,71,29.51,10.0,NW,9.2,-,N/A,,Partly Cloudy,310,2012-10-16 10:54:00
3:54 AM,19.4,12.2,74,29.51,10.0,NW,8.1,-,N/A,,Mostly Cloudy,310,2012-10-16 11:54:00
4:54 AM,19.9,12.0,71,29.53,10.0,NW,11.5,-,N/A,,Clear,310,2012-10-16 12:54:00
5:54 AM,21.0,12.9,71,29.53,10.0,NW,9.2,-,N/A,,Overcast,320,2012-10-16 13:54:00
6:54 AM,21.9,12.0,66,29.54,10.0,NW,10.4,-,N/A,,Mostly Cloudy,320,2012-10-16 14:54:00
7:54 AM,18.0,12.0,78,29.56,10.0,NNW,5.8,-,N/A,,Mostly Cloudy,330,2012-10-16 15:54:00
8:54 AM,19.9,12.9,74,29.56,10.0,NW,9.2,-,N/A,,Overcast,310,2012-10-16 16:54:00
9:54 AM,21.0,12.0,68,29.58,10.0,NW,8.1,-,N/A,,Overcast,310,2012-10-16 17:54:00
10:54 AM,24.1,12.9,62,29.59,10.0,NW,10.4,-,N/A,,Overcast,320,2012-10-16 18:54:00
11:54 AM,26.1,12.9,58,29.61,10.0,NW,12.7,-,N/A,,Scattered Clouds,310,2012-10-16 19:54:00
12:54 PM,27.0,12.9,56,29.62,10.0,NW,9.2,-,N/A,,Scattered Clouds,310,2012-10-16 20:54:00
1:54 PM,28.9,14.0,54,29.62,10.0,NW,13.8,19.6,N/A,,Scattered Clouds,320,2012-10-16 21:54:00
2:54 PM,30.0,15.1,54,29.62,10.0,NNW,17.3,26.5,N/A,,Scattered Clouds,340,2012-10-16 22:54:00
3:54 PM,30.0,15.1,54,29.63,10.0,NNW,17.3,25.3,0.00,,Overcast,340,2012-10-16 23:54:00
4:54 PM,30.0,15.1,54,29.64,10.0,North,15.0,-,N/A,,Mostly Cloudy,350,2012-10-17 00:54:00
5:54 PM,28.9,15.1,56,29.66,10.0,NNW,16.1,-,N/A,,Mostly Cloudy,340,2012-10-17 01:54:00
6:54 PM,28.0,14.0,56,29.68,10.0,NNW,13.8,23.0,N/A,,Mostly Cloudy,340,2012-10-17 02:54:00
7:54 PM,27.0,14.0,58,29.69,10.0,NNW,15.0,21.9,N/A,,Mostly Cloudy,330,2012-10-17 03:54:00
8:54 PM,24.1,14.0,65,29.72,10.0,NNW,8.1,-,N/A,,Scattered Clouds,330,2012-10-17 04:54:00
9:54 PM,19.9,12.0,71,29.74,10.0,NW,4.6,-,N/A,,Scattered Clouds,310,2012-10-17 05:54:00
10:54 PM,19.9,12.0,71,29.76,10.0,NW,5.8,-,N/A,,Partly Cloudy,320,2012-10-17 06:54:00
11:54 PM,19.0,12.0,74,29.78,10.0,WNW,8.1,-,N/A,,Clear,300,2012-10-17 07:54:00